Flag for Germany Weather past 2 weeks in Hamburg, Hamburg, Germany

43 °F

Partly sunny.

Feels Like: 37 °F
Forecast: 44 / 51 °F
Wind: 10 mph from West

Location: Hamburg-Fuhlsbuettel

Current Time: Dec 1, 2015 at 10:59:27 AM

Latest Report: Dec 1, 2015 at 10:20 AM

Visibility: N/A

Pressure: 30.07 "Hg

Humidity: 87%

Dew point: 39 °F

Location of HamburgLocation

Historic Weather in Hamburg — Graph


Hamburg temperature yesterday

Maximum temperature yesterday: 45 °F (at 2:50 AM)
Minimum temperature yesterday: 37 °F (at 6:50 AM)
Average temperature yesterday: 41 °F

Past Weeks' High & Low Weather Summary

High57 °F (Nov 17, 11:50 PM)100% (Nov 16, 9:50 PM)30.15 "Hg (Nov 16, 9:50 PM)
Low30 °F (Nov 22, 2:20 AM)66% (Nov 24, 12:50 PM)29.30 "Hg (Nov 21, 1:20 AM)
Average43 °F88%29.70 "Hg
* Reported Nov 16 7:20 AM — Dec 1 7:50 AM, Hamburg, Weather by CustomWeather, © 2015

Note: Actual official high and low records may vary slightly from our data, if they occured in-between our weather recording intervals... More about our weather records


Hamburg weather history for previous 24 hours

Time TempWeatherWind HumidityBarometerVisibility
7:50 AM
Tue, Dec 1
41 °FLight rain. Partly cloudy.9 mph93%30.01 "HgN/A
7:20 AM41 °FClear.8 mph93%30.01 "Hg10 mi
6:50 AM41 °FClear.9 mph93%29.98 "Hg10 mi
6:20 AM41 °FClear.9 mph93%29.98 "Hg10 mi
5:50 AM41 °FPassing clouds.8 mph93%29.98 "HgN/A
5:20 AM41 °FPassing clouds.8 mph93%29.95 "HgN/A
4:50 AM41 °FPassing clouds.7 mph93%29.95 "HgN/A
4:20 AM41 °FPassing clouds.7 mph93%29.92 "HgN/A
3:50 AM41 °FClear.7 mph93%29.89 "Hg10 mi
3:20 AM41 °FScattered showers. Passing clouds.8 mph93%29.89 "HgN/A
2:50 AM41 °FScattered showers. Passing clouds.7 mph93%29.86 "HgN/A
2:20 AM39 °FSprinkles. Passing clouds.8 mph100%29.86 "Hg5 mi
1:50 AM39 °FPassing clouds.9 mph100%29.83 "Hg4 mi
12:50 AM39 °FFog.7 mph100%29.77 "Hg3 mi
12:20 AM37 °FFog.8 mph100%29.74 "Hg2 mi
11:20 PM
Mon, Nov 30
39 °FPartly cloudy.5 mph100%29.71 "Hg4 mi
10:50 PM39 °FPassing clouds.3 mph100%29.68 "Hg4 mi
10:20 PM39 °FPartly cloudy.1 mph93%29.65 "Hg4 mi
9:50 PM39 °FPartly cloudy.3 mph93%29.65 "Hg5 mi
9:20 PM39 °FLight rain. Partly cloudy.6 mph93%29.65 "Hg6 mi
8:50 PM39 °FLight rain. Passing clouds.6 mph93%29.65 "HgN/A
8:20 PM39 °FLight rain. Passing clouds.6 mph93%29.65 "HgN/A
7:50 PM37 °FLight rain. Passing clouds.7 mph100%29.65 "HgN/A
7:20 PM37 °FLight rain. Passing clouds.7 mph100%29.68 "HgN/A
6:50 PM37 °FLight rain. Passing clouds.8 mph100%29.71 "HgN/A
6:20 PM37 °FLight rain. Passing clouds.12 mph93%29.71 "HgN/A
5:50 PM37 °FLight rain. Passing clouds.16 mph93%29.74 "HgN/A
5:20 PM39 °FLight rain. Passing clouds.15 mph87%29.74 "HgN/A
4:50 PM39 °FLight rain. Partly cloudy.15 mph87%29.77 "HgN/A
4:20 PM41 °FLight rain. Partly cloudy.20 mph76%29.77 "HgN/A
3:50 PM41 °FLight rain. Broken clouds.21 mph76%29.77 "HgN/A
3:20 PM43 °FLight rain. Broken clouds.20 mph71%29.80 "HgN/A
2:50 PM45 °FScattered showers. Broken clouds.20 mph71%29.80 "HgN/A
2:20 PM45 °FBroken clouds.18 mph71%29.80 "HgN/A
1:50 PM45 °FScattered showers. Broken clouds.17 mph71%29.83 "HgN/A
1:20 PM45 °FBroken clouds.18 mph71%29.83 "HgN/A
12:50 PM45 °FPartly sunny.17 mph71%29.83 "HgN/A
12:20 PM45 °FPartly sunny.20 mph71%29.83 "HgN/A
11:50 AM45 °FScattered showers. Broken clouds.17 mph71%29.83 "HgN/A
11:20 AM45 °FSprinkles. Broken clouds.20 mph71%29.83 "HgN/A
10:50 AM45 °FSprinkles. Partly sunny.16 mph71%29.83 "HgN/A
10:20 AM43 °FScattered showers. Partly sunny.16 mph76%29.83 "HgN/A
Weather by CustomWeather, © 2015

See weather overviewHow to use our weather pages